Weather History for Tacoma Narrows, WA

Change the Weather History Date:

Thursday, December 29, 2011

  Actual Average Record
Temperature  
Mean Temperature 46 °F -  
Max Temperature 48 °F 43 °F 53 °F (1997)
Min Temperature 44 °F 36 °F 30 °F (2003)
Degree Days  
Heating Degree Days 19    
Moisture  
Dew Point 42 °F    
Average Humidity 89    
Maximum Humidity 100    
Minimum Humidity 76    
Precipitation  
Precipitation 0.55 in - - ()
Sea Level Pressure  
Sea Level Pressure 29.82 in    
Wind  
Wind Speed 10 mph (South)    
Max Wind Speed 18 mph    
Max Gust Speed 26 mph    
Visibility 8 miles    
Events Rain    
Averages and records for this station are not official NWS values.
T = Trace of Precipitation, MM = Missing Value Source: NWS Daily Summary

Daily Weather History Graph

Daily Weather History Graph

Search for Another Location

Airport:

Trip Planner

Search our weather history database for the weather conditions in past years. The results will help you decide how hot, cold, wet, or windy it might be!

Date:

Astronomy

Dec. 29, 2011 Rise Set
Actual Time 7:56 AM PST 4:27 PM PST
Civil Twilight 7:21 AM PST 5:03 PM PST
Nautical Twilight 6:42 AM PST 5:42 PM PST
Astronomical Twilight 6:05 AM PST 6:19 PM PST
Moon 10:30 AM PST (12/29) 10:34 PM PST (12/29)
Length of Visible Light 9h 42m
Length of Day
8h 30m
Waxing Crescent, 27% of the Moon is Illuminated
Dec 29
Waxing Crescent
Dec 31
First Quarter
Jan 8
Full
Jan 16
Last Quarter
Jan 22
New

Hourly Weather History & Observations

Time (PST) Temp. Windchill Dew Point Humidity Pressure Visibility Wind Dir Wind Speed Gust Speed Precip Events Conditions
12:53 AM 48.0 °F - 43.0 °F 83% 29.88 in 10.0 mi SSW 17.3 mph 26.5 mph 0.00 in   Overcast
1:53 AM 46.9 °F - 42.1 °F 83% 29.92 in 10.0 mi SSW 13.8 mph 24.2 mph N/A   Overcast
2:53 AM 46.9 °F - 41.0 °F 80% 29.96 in 10.0 mi SSW 10.4 mph 23.0 mph N/A   Overcast
3:19 AM 46.4 °F 39.2 °F 39.2 °F 76% 29.96 in 10.0 mi SSW 18.4 mph 25.3 mph N/A   Scattered Clouds
3:53 AM 46.0 °F 39.9 °F 41.0 °F 83% 29.99 in 10.0 mi SSW 13.8 mph 23.0 mph N/A   Partly Cloudy
4:16 AM 46.4 °F 40.4 °F 41.0 °F 81% 30.00 in 10.0 mi SSW 13.8 mph 21.9 mph N/A   Mostly Cloudy
4:40 AM 46.4 °F 40.1 °F 39.2 °F 76% 30.00 in 10.0 mi SW 15.0 mph 23.0 mph N/A   Scattered Clouds
4:53 AM 46.0 °F 39.9 °F 39.9 °F 79% 30.02 in 10.0 mi SSW 13.8 mph 23.0 mph N/A   Clear
5:53 AM 45.0 °F 38.5 °F 39.0 °F 80% 30.04 in 10.0 mi SSW 13.8 mph 23.0 mph N/A   Clear
6:53 AM 44.6 °F 38.1 °F 39.2 °F 81% 30.06 in 10.0 mi South 13.8 mph - N/A   Clear
7:53 AM 44.1 °F 38.1 °F 41.0 °F 89% 30.09 in 10.0 mi South 11.5 mph - N/A   Scattered Clouds
8:53 AM 45.0 °F 40.6 °F 41.0 °F 86% 30.10 in 10.0 mi South 8.1 mph - N/A   Scattered Clouds
9:53 AM 46.0 °F 41.9 °F 41.0 °F 83% 30.09 in 10.0 mi South 8.1 mph - N/A   Overcast
10:53 AM 45.0 °F 41.2 °F 42.1 °F 90% 30.06 in 10.0 mi SSW 6.9 mph - 0.01 in Rain Light Rain
11:53 AM 46.0 °F 44.8 °F 42.1 °F 86% 30.03 in 10.0 mi Variable 3.5 mph - 0.00 in   Scattered Clouds
12:53 PM 44.6 °F 43.1 °F 42.8 °F 93% 29.96 in 10.0 mi SE 3.5 mph - N/A   Overcast
1:53 PM 45.0 °F - 42.1 °F 90% 29.93 in 6.0 mi Calm Calm - 0.00 in Rain Light Rain
2:53 PM 45.0 °F - 42.1 °F 90% 29.86 in 7.0 mi Calm Calm - 0.02 in Rain Light Rain
3:34 PM 44.6 °F - 42.8 °F 93% 29.82 in 4.0 mi Calm Calm - 0.04 in Rain Light Rain
3:53 PM 44.1 °F 42.5 °F 43.0 °F 96% 29.81 in 4.0 mi NE 3.5 mph - 0.06 in Rain Light Rain
4:53 PM 44.1 °F - 42.1 °F 93% 29.77 in 8.0 mi Calm Calm - 0.02 in Rain Light Rain
5:53 PM 44.1 °F - 42.1 °F 93% 29.69 in 9.0 mi Calm Calm - 0.05 in Rain Light Rain
6:38 PM 44.6 °F - 42.8 °F 93% 29.65 in 10.0 mi Calm Calm - 0.00 in Rain Light Rain
6:53 PM 44.1 °F 42.5 °F 42.1 °F 93% 29.65 in 5.0 mi NE 3.5 mph - 0.02 in Rain Light Rain
7:53 PM 44.1 °F - 43.0 °F 96% 29.62 in 5.0 mi Calm Calm - 0.08 in Rain Light Rain
8:43 PM 44.6 °F - 42.8 °F 93% 29.59 in 4.0 mi Calm Calm - 0.05 in Rain Light Rain
8:53 PM 44.1 °F - 43.0 °F 96% 29.60 in 5.0 mi Calm Calm - 0.06 in Rain Light Rain
9:31 PM 44.6 °F 42.2 °F 42.8 °F 93% 29.58 in 7.0 mi SSE 4.6 mph - 0.01 in Rain Light Rain
9:36 PM 44.6 °F 42.2 °F 42.8 °F 93% 29.58 in 8.0 mi SSE 4.6 mph - 0.02 in Rain Light Rain
9:53 PM 45.0 °F 40.6 °F 44.1 °F 97% 29.57 in 8.0 mi SSE 8.1 mph - 0.03 in Rain Light Rain
10:36 PM 48.2 °F - 46.4 °F 93% 29.56 in 10.0 mi South 11.5 mph - 0.03 in Rain Light Rain
10:53 PM 48.9 °F - 46.9 °F 93% 29.57 in 10.0 mi South 13.8 mph - 0.04 in Rain Light Rain
11:19 PM 48.2 °F - 48.2 °F 100% 29.59 in 4.0 mi WSW 11.5 mph - 0.09 in Rain Rain
11:30 PM 48.2 °F - 46.4 °F 93% 29.59 in 5.0 mi SW 15.0 mph 21.9 mph 0.12 in Rain Rain
11:53 PM 48.0 °F - 45.0 °F 89% 29.60 in 8.0 mi SW 16.1 mph 25.3 mph 0.16 in Rain Light Rain